M I D A S
Marine Information and Data Acquisition System
Tripno 394 of the Zeeleeuw from 2002-11-28 07:58:29 to 2002-11-28 15:38:08
Back to CruiseResearch ActivitiesStationsMapUnderway DataData graphs

EquipmentUnitsComments
TimeDGPSUTC
LatitudeDGPSDM.mWGS84
LongitudeDGPSDM.mWGS84
SpeedMeteo Stationm/sRelative wind speed
DirectionMeteo StationdegRelative wind direction
TemperatureMeteo Stationdeg CelciusAir temperature
PressureMeteo StationPaAtmospheric pressure
HumidityMeteo Station%Relative humidity
Missing or incorrect values are displayed as -999
Metereological data collected by the RV Zeeleeuw from 2002-11-28 07:58:29 to 2002-11-28 15:38:08
Time Latitude Longitude Speed Direction Temperature Pressure Humidity
2002-11-28 07:59 51°13.68 2°55.836 5.4 115 7.6 100790 91
2002-11-28 08:00 51°13.684 2°55.768 4.1 115 7.6 100780 91
2002-11-28 08:01 51°13.689 2°55.751 3.1 89 7.6 100780 91
2002-11-28 08:02 51°13.727 2°55.743 1.7 356 7.6 100780 91
2002-11-28 08:03 51°13.807 2°55.661 2.2 61 7.6 100780 91
2002-11-28 08:04 51°13.917 2°55.583 1.5 14 7.7 100770 92
2002-11-28 08:05 51°14.016 2°55.515 2.1 72 7.7 100760 91
2002-11-28 08:06 51°14.097 2°55.449 3.3 57 7.7 100760 92
2002-11-28 08:07 51°14.168 2°55.391 3.7 37 7.8 100760 92
2002-11-28 08:08 51°14.234 2°55.325 3.2 11 7.8 100750 91
2002-11-28 08:09 51°14.299 2°55.216 1.2 333 7.8 100740 91
2002-11-28 08:10 51°14.407 2°54.996 2.1 265 7.8 100750 91
2002-11-28 08:11 51°14.552 2°54.766 3.7 281 7.8 100740 91
2002-11-28 08:12 51°14.704 2°54.549 1.5 356 7.8 100740 91
2002-11-28 08:13 51°14.899 2°54.387 2.2 356 7.8 100740 91
2002-11-28 08:14 51°15.094 2°54.215 2.6 299 7.8 100740 91
2002-11-28 08:15 51°15.296 2°54.03 1.2 338 7.9 100740 91
2002-11-28 08:16 51°15.501 2°53.843 1.4 328 7.9 100740 91
2002-11-28 08:17 51°15.707 2°53.657 1.9 285 7.9 100730 91
2002-11-28 08:18 51°15.912 2°53.473 2.8 295 7.9 100740 91
2002-11-28 08:19 51°16.117 2°53.291 2.7 302 8 100740 91
2002-11-28 08:20 51°16.322 2°53.109 3.4 292 8 100740 92
2002-11-28 08:21 51°16.524 2°52.944 3.6 293 8 100740 92
2002-11-28 08:22 51°16.741 2°52.769 1.3 321 8.1 100740 92
2002-11-28 08:23 51°16.963 2°52.621 1.9 341 8.1 100750 92
2002-11-28 08:24 51°17.182 2°52.49 0.8 346 8.1 100750 92
2002-11-28 08:25 51°17.407 2°52.36 0.8 358 8.1 100750 91
2002-11-28 08:26 51°17.64 2°52.266 0.6 24 8.1 100760 92
2002-11-28 08:27 51°17.876 2°52.192 0.8 346 8.2 100760 92
2002-11-28 08:28 51°18.116 2°52.137 2.3 8 8.3 100770 92
2002-11-28 08:29 51°18.357 2°52.093 1.7 7 8.2 100770 91
2002-11-28 08:30 51°18.599 2°52.05 1.1 356 8.3 100770 92
2002-11-28 08:31 51°18.839 2°52.003 0.9 12 8.3 100760 92
2002-11-28 08:32 51°19.084 2°51.961 0.2 5 8.3 100760 91
2002-11-28 08:33 51°19.321 2°51.93 0.9 46 8.3 100760 91
2002-11-28 08:34 51°19.563 2°51.908 2.5 131 8.3 100760 92
2002-11-28 08:35 51°19.804 2°51.884 2 41 8.5 100760 92
2002-11-28 08:36 51°20.047 2°51.877 0.1 318 8.5 100760 91
2002-11-28 08:37 51°20.29 2°51.874 0.8 85 8.6 100760 91
2002-11-28 08:38 51°20.531 2°51.869 1 54 8.6 100770 91
2002-11-28 08:39 51°20.774 2°51.867 2.2 19 8.6 100770 91
2002-11-28 08:40 51°21.021 2°51.864 3 9 8.6 100770 91
2002-11-28 08:41 51°21.261 2°51.865 1.8 9 8.6 100770 91
2002-11-28 08:42 51°21.506 2°51.869 1.5 129 8.6 100770 91
2002-11-28 08:43 51°21.751 2°51.874 2.2 69 8.6 100770 91
2002-11-28 08:44 51°21.997 2°51.947 3.7 119 8.6 100770 90
2002-11-28 08:45 51°22.198 2°52.159 6.8 151 8.7 100770 91
2002-11-28 08:46 51°22.335 2°52.489 7.8 163 8.7 100750 91
2002-11-28 08:47 51°22.47 2°52.82 7.7 146 8.7 100760 91
2002-11-28 08:48 51°22.615 2°53.143 7.8 160 8.7 100770 91
2002-11-28 08:49 51°22.758 2°53.466 6.8 138 8.8 100770 91
2002-11-28 08:50 51°22.91 2°53.792 7.1 157 8.8 100770 91
2002-11-28 08:51 51°23.063 2°54.111 8.3 141 8.8 100770 90
2002-11-28 08:52 51°23.214 2°54.424 6.9 167 8.9 100770 90
2002-11-28 08:53 51°23.361 2°54.734 7 167 8.9 100770 91
2002-11-28 08:54 51°23.51 2°55.046 7.7 158 8.9 100770 90
2002-11-28 08:55 51°23.672 2°55.344 6.7 145 8.9 100780 90
2002-11-28 08:56 51°23.872 2°55.583 3 112 8.8 100780 90
2002-11-28 08:57 51°24.103 2°55.694 2.4 102 8.9 100790 91
2002-11-28 08:58 51°24.346 2°55.738 0.4 329 8.8 100790 90
2002-11-28 08:59 51°24.59 2°55.775 1.3 64 8.9 100790 91
2002-11-28 09:00 51°24.835 2°55.803 1.9 4 8.9 100790 91
2002-11-28 09:01 51°25.08 2°55.82 2.8 35 8.9 100790 90
2002-11-28 09:02 51°25.325 2°55.844 1.6 25 8.9 100790 90
2002-11-28 09:03 51°25.571 2°55.865 1 33 8.9 100790 90
2002-11-28 09:04 51°25.822 2°55.889 1.2 20 8.9 100790 90
2002-11-28 09:05 51°26.062 2°55.914 1.7 59 9 100790 90
2002-11-28 09:06 51°26.307 2°55.936 0.3 332 9 100790 90
2002-11-28 09:07 51°26.549 2°55.963 1.4 16 9 100780 90
2002-11-28 09:08 51°26.793 2°55.986 2.2 47 9 100780 90
2002-11-28 09:09 51°27.028 2°56.017 1.5 269 9 100790 90
2002-11-28 09:10 51°27.281 2°56.048 0.5 23 9.1 100780 90
2002-11-28 09:11 51°27.486 2°56.053 4.9 24 9.1 100790 90
2002-11-28 09:12 51°27.553 2°55.947 10.9 273 9.2 100780 90
2002-11-28 09:13 51°27.51 2°55.907 12 212 9.2 100740 90
2002-11-28 09:14 51°27.425 2°55.956 12.9 216 9.2 100760 90
2002-11-28 09:15 51°27.361 2°56.078 11.2 175 9.2 100740 90
2002-11-28 09:16 51°27.362 2°56.137 8.8 153 9.2 100760 90
2002-11-28 09:17 51°27.384 2°56.164 8.4 138 9.2 100760 90
2002-11-28 09:18 51°27.405 2°56.194 8.4 134 9.3 100750 90
2002-11-28 09:19 51°27.428 2°56.225 7.4 140 9.2 100760 89
2002-11-28 09:20 51°27.448 2°56.257 8.7 143 9.2 100750 90
2002-11-28 09:21 51°27.467 2°56.289 9.7 150 9.2 100750 90
2002-11-28 09:22 51°27.487 2°56.323 8.3 150 9.1 100760 89
2002-11-28 09:23 51°27.505 2°56.355 8.5 148 9.2 100760 90
2002-11-28 09:24 51°27.525 2°56.389 7.7 147 9.2 100760 90
2002-11-28 09:25 51°27.534 2°56.48 9.9 149 9.2 100760 89
2002-11-28 09:26 51°27.646 2°56.745 4.1 151 9.2 100770 89
2002-11-28 09:27 51°27.827 2°57.01 5.5 153 9.2 100780 90
2002-11-28 09:28 51°27.992 2°57.273 6.5 142 9.2 100780 89
2002-11-28 09:29 51°28.172 2°57.556 4.8 148 9.2 100780 89
2002-11-28 09:30 51°28.345 2°57.833 5.9 152 9.1 100770 89
2002-11-28 09:31 51°28.52 2°58.105 5.4 140 9.1 100770 89
2002-11-28 09:32 51°28.701 2°58.376 5 134 9.1 100780 89
2002-11-28 09:33 51°28.883 2°58.643 5.5 138 9.1 100770 90
2002-11-28 09:34 51°29.07 2°58.903 4.7 141 9.1 100770 90
2002-11-28 09:35 51°29.277 2°59.096 0.9 328 9.1 100770 89
2002-11-28 09:36 51°29.518 2°59.107 1.7 30 9.1 100770 90
2002-11-28 09:37 51°29.762 2°59.086 1 317 9.2 100780 90
2002-11-28 09:38 51°30.006 2°59.059 2.2 13 9.2 100770 90
2002-11-28 09:39 51°30.25 2°59.039 0.9 323 9.2 100780 90
2002-11-28 09:40 51°30.493 2°59.013 1 5 9.2 100770 90
2002-11-28 09:41 51°30.734 2°58.995 2.1 359 9.2 100770 90
2002-11-28 09:42 51°30.936 2°59.006 5 83 9.2 100770 90
2002-11-28 09:43 51°31.033 2°59.169 6.9 106 9.2 100760 89
2002-11-28 09:44 51°31.141 2°59.243 5.5 16 9.3 100780 90
2002-11-28 09:45 51°31.228 2°59.151 9.1 296 9.3 100790 89
2002-11-28 09:46 51°31.228 2°59.016 10.9 266 9.3 100780 89
2002-11-28 09:47 51°31.161 2°58.972 11.6 218 9.3 100750 90
2002-11-28 09:48 51°31.073 2°59.005 11.9 231 9.3 100760 90
2002-11-28 09:49 51°30.978 2°59.016 13 230 9.3 100760 89
2002-11-28 09:50 51°30.882 2°58.992 12.7 237 9.3 100760 89
2002-11-28 09:51 51°30.804 2°58.992 12 238 9.2 100750 89
2002-11-28 09:52 51°30.77 2°59 10 238 9.3 100770 89
2002-11-28 09:53 51°30.78 2°59.011 9.6 247 9.2 100770 89
2002-11-28 09:54 51°30.798 2°59.024 9.6 251 9.2 100770 89
2002-11-28 09:55 51°30.807 2°59.023 9.6 277 9.2 100770 89
2002-11-28 09:56 51°30.818 2°58.978 8.5 304 9.2 100760 89
2002-11-28 09:57 51°30.853 2°58.908 2.5 326 9.2 100770 89
2002-11-28 09:58 51°30.97 2°58.832 0.7 354 9.3 100790 89
2002-11-28 09:59 51°31.17 2°58.696 10 297 9.3 100790 89
2002-11-28 10:00 51°31.181 2°58.364 15.5 266 9.3 100740 89
2002-11-28 10:01 51°31.142 2°58.017 13.3 266 9.3 100760 89
2002-11-28 10:02 51°31.118 2°57.665 14.9 276 9.4 100730 89
2002-11-28 10:03 51°31.094 2°57.313 14.3 277 9.4 100750 89
2002-11-28 10:04 51°31.068 2°56.963 15.6 275 9.4 100740 89
2002-11-28 10:05 51°31.044 2°56.611 14.9 269 9.4 100740 89
2002-11-28 10:06 51°31.017 2°56.263 14.9 274 9.4 100750 89
2002-11-28 10:07 51°31.015 2°55.908 12 280 9.4 100740 88
2002-11-28 10:08 51°31.076 2°55.566 10.7 294 9.4 100750 89
2002-11-28 10:09 51°31.236 2°55.294 8.5 296 9.4 100770 89
2002-11-28 10:10 51°31.446 2°55.129 1.1 330 9.4 100790 89
2002-11-28 10:11 51°31.682 2°55.205 5.1 125 9.5 100800 89
2002-11-28 10:12 51°31.887 2°55.407 5.7 132 9.5 100790 89
2002-11-28 10:13 51°32.093 2°55.612 4.5 148 9.5 100800 88
2002-11-28 10:14 51°32.297 2°55.805 3.2 126 9.5 100800 89
2002-11-28 10:15 51°32.517 2°55.989 2.2 113 9.4 100800 88
2002-11-28 10:16 51°32.741 2°56.146 2.2 86 9.5 100800 88
2002-11-28 10:17 51°32.962 2°56.308 4.1 133 9.5 100800 89
2002-11-28 10:18 51°33.182 2°56.472 2.6 92 9.5 100800 88
2002-11-28 10:19 51°33.407 2°56.621 3.9 81 9.4 100800 88
2002-11-28 10:20 51°33.631 2°56.771 2 81 9.5 100800 88
2002-11-28 10:21 51°33.851 2°56.919 2.9 72 9.5 100800 89
2002-11-28 10:22 51°34.072 2°57.063 1.8 56 9.5 100800 88
2002-11-28 10:23 51°34.296 2°57.211 3.5 85 9.5 100800 88
2002-11-28 10:24 51°34.521 2°57.302 3.7 357 9.5 100800 88
2002-11-28 10:25 51°34.655 2°57.05 14.3 272 9.6 100780 89
2002-11-28 10:26 51°34.55 2°56.773 17.6 255 9.5 100750 88
2002-11-28 10:27 51°34.421 2°56.492 16.2 254 9.6 100730 88
2002-11-28 10:28 51°34.3 2°56.199 17.4 258 9.6 100730 88
2002-11-28 10:29 51°34.181 2°55.905 18.1 262 9.6 100720 88
2002-11-28 10:30 51°34.068 2°55.604 18.3 260 9.6 100730 88
2002-11-28 10:31 51°33.956 2°55.3 15.9 254 9.6 100730 88
2002-11-28 10:32 51°33.845 2°54.996 17.8 257 9.6 100740 88
2002-11-28 10:33 51°33.733 2°54.694 19 260 9.6 100740 88
2002-11-28 10:34 51°33.621 2°54.389 17.4 259 9.6 100740 88
2002-11-28 10:35 51°33.51 2°54.085 17.8 257 9.6 100730 88
2002-11-28 10:36 51°33.398 2°53.781 16.9 259 9.6 100730 88
2002-11-28 10:37 51°33.286 2°53.478 17 262 9.6 100730 88
2002-11-28 10:38 51°33.176 2°53.172 17.4 263 9.6 100720 88
2002-11-28 10:39 51°33.065 2°52.865 15 256 9.6 100720 88
2002-11-28 10:40 51°32.954 2°52.56 18.6 261 9.5 100720 88
2002-11-28 10:41 51°32.845 2°52.254 17.7 257 9.5 100740 88
2002-11-28 10:42 51°32.734 2°51.948 18 259 9.5 100730 88
2002-11-28 10:43 51°32.624 2°51.641 18.2 261 9.5 100730 89
2002-11-28 10:44 51°32.513 2°51.334 18.3 259 9.5 100720 88
2002-11-28 10:45 51°32.402 2°51.027 16.4 257 9.5 100730 89
2002-11-28 10:46 51°32.291 2°50.718 17.1 260 9.5 100720 88
2002-11-28 10:47 51°32.18 2°50.409 16.6 253 9.5 100730 89
2002-11-28 10:48 51°32.068 2°50.102 17.9 263 9.4 100740 89
2002-11-28 10:49 51°31.956 2°49.795 19.6 261 9.4 100720 89
2002-11-28 10:50 51°31.83 2°49.507 18.6 244 9.4 100720 89
2002-11-28 10:51 51°31.655 2°49.294 18 239 9.5 100730 89
2002-11-28 10:52 51°31.478 2°49.086 18 243 9.5 100730 89
2002-11-28 10:53 51°31.302 2°48.875 17 244 9.5 100730 89
2002-11-28 10:54 51°31.125 2°48.662 17.2 243 9.4 100730 89
2002-11-28 10:55 51°30.942 2°48.464 17 239 9.4 100730 89
2002-11-28 10:56 51°30.757 2°48.272 17.4 240 9.5 100730 89
2002-11-28 10:57 51°30.573 2°48.075 17.8 241 9.5 100740 89
2002-11-28 10:58 51°30.387 2°47.88 17.4 244 9.5 100740 89
2002-11-28 10:59 51°30.203 2°47.683 16.7 242 9.5 100730 89
2002-11-28 11:00 51°30.019 2°47.485 17.3 244 9.5 100750 89
2002-11-28 11:01 51°29.835 2°47.288 18.6 244 9.6 100740 89
2002-11-28 11:02 51°29.666 2°47.064 16.3 262 9.6 100740 89
2002-11-28 11:03 51°29.622 2°46.72 13.4 281 9.5 100730 89
2002-11-28 11:04 51°29.631 2°46.357 16.3 278 9.5 100740 89
2002-11-28 11:05 51°29.625 2°45.994 15.1 271 9.6 100720 89
2002-11-28 11:06 51°29.615 2°45.631 15.1 270 9.6 100730 89
2002-11-28 11:07 51°29.609 2°45.267 15.5 271 9.7 100710 89
2002-11-28 11:08 51°29.602 2°44.904 15.4 276 9.7 100710 89
2002-11-28 11:09 51°29.593 2°44.541 15.4 271 9.7 100710 89
2002-11-28 11:10 51°29.584 2°44.175 15.2 275 9.8 100700 89
2002-11-28 11:11 51°29.577 2°43.811 14.6 278 9.8 100690 89
2002-11-28 11:12 51°29.58 2°43.446 13.3 279 9.8 100700 88
2002-11-28 11:13 51°29.592 2°43.08 13.8 279 9.9 100690 88
2002-11-28 11:14 51°29.607 2°42.714 15.5 279 9.9 100710 88
2002-11-28 11:15 51°29.621 2°42.349 15.2 279 10 100710 88
2002-11-28 11:16 51°29.635 2°41.983 15 281 10 100690 88
2002-11-28 11:17 51°29.649 2°41.618 15.4 287 10 100680 88
2002-11-28 11:18 51°29.662 2°41.253 14.8 283 10.1 100700 88
2002-11-28 11:19 51°29.676 2°40.886 14.7 283 10 100690 87
2002-11-28 11:20 51°29.688 2°40.518 13.6 279 10 100690 88
2002-11-28 11:21 51°29.701 2°40.15 13.5 282 10 100690 88
2002-11-28 11:22 51°29.715 2°39.782 14.9 280 10 100670 88
2002-11-28 11:23 51°29.725 2°39.414 14.4 279 10 100690 88
2002-11-28 11:24 51°29.736 2°39.047 15.4 279 10.1 100690 88
2002-11-28 11:25 51°29.745 2°38.679 15.7 280 10.1 100690 87
2002-11-28 11:26 51°29.755 2°38.31 14.5 279 10.1 100670 88
2002-11-28 11:27 51°29.73 2°37.951 13.9 259 10.2 100680 88
2002-11-28 11:28 51°29.644 2°37.617 17.4 260 10.2 100690 87
2002-11-28 11:29 51°29.485 2°37.378 17.7 247 10.2 100680 87
2002-11-28 11:30 51°29.304 2°37.169 17.4 245 10.2 100690 87
2002-11-28 11:31 51°29.127 2°36.948 15.2 239 10.1 100680 87
2002-11-28 11:32 51°28.951 2°36.727 17.7 247 10.1 100680 87
2002-11-28 11:33 51°28.775 2°36.504 18 241 10.2 100700 88
2002-11-28 11:34 51°28.599 2°36.282 18.5 245 10.2 100680 88
2002-11-28 11:35 51°28.424 2°36.058 17.6 246 10.2 100680 87
2002-11-28 11:36 51°28.248 2°35.834 19.2 247 10.1 100680 87
2002-11-28 11:37 51°28.072 2°35.611 16.6 244 10.1 100690 87
2002-11-28 11:38 51°27.894 2°35.387 17.4 246 10.1 100690 88
2002-11-28 11:39 51°27.717 2°35.161 18.7 249 10.1 100690 88
2002-11-28 11:40 51°27.54 2°34.933 17.1 253 10.1 100690 88
2002-11-28 11:41 51°27.361 2°34.707 17.7 246 10.1 100680 88
2002-11-28 11:42 51°27.182 2°34.48 19.2 245 10.1 100690 88
2002-11-28 11:43 51°27.001 2°34.256 17.8 245 10.1 100680 87
2002-11-28 11:44 51°26.82 2°34.035 16.6 246 10 100690 87
2002-11-28 11:45 51°26.638 2°33.814 16.8 243 10 100690 88
2002-11-28 11:46 51°26.455 2°33.593 16.9 245 10.1 100700 88
2002-11-28 11:47 51°26.273 2°33.371 18.8 247 10.1 100700 88
2002-11-28 11:48 51°26.087 2°33.157 16.4 241 10.1 100700 88
2002-11-28 11:49 51°25.879 2°32.991 17.7 241 10.1 100710 88
2002-11-28 11:50 51°25.662 2°32.869 15.8 233 10 100690 88
2002-11-28 11:51 51°25.438 2°32.839 16.3 229 10 100690 88
2002-11-28 11:52 51°25.21 2°32.839 16.7 230 10 100690 87
2002-11-28 11:53 51°24.986 2°32.857 16.5 216 10 100680 88
2002-11-28 11:54 51°24.766 2°32.938 15.4 219 10 100680 88
2002-11-28 11:55 51°24.544 2°33.015 16.1 223 10 100680 87
2002-11-28 11:56 51°24.32 2°33.09 16.1 218 10 100680 88
2002-11-28 11:57 51°24.097 2°33.164 15.5 219 10 100660 88
2002-11-28 11:58 51°23.872 2°33.228 15.4 222 10 100660 87
2002-11-28 11:59 51°23.644 2°33.222 16.9 228 9.9 100690 87
2002-11-28 12:00 51°23.416 2°33.136 15.4 233 9.9 100710 88
2002-11-28 12:01 51°23.192 2°33.028 17.3 235 9.9 100700 88
2002-11-28 12:02 51°22.97 2°32.909 16.7 238 9.9 100700 88
2002-11-28 12:03 51°22.746 2°32.813 16 228 9.9 100710 88
2002-11-28 12:04 51°22.516 2°32.781 16.9 227 9.9 100710 88
2002-11-28 12:05 51°22.285 2°32.752 15.9 227 9.8 100700 88
2002-11-28 12:06 51°22.055 2°32.72 16.9 232 9.8 100700 88
2002-11-28 12:07 51°21.826 2°32.689 15.6 231 9.8 100700 88
2002-11-28 12:08 51°21.597 2°32.657 14.5 229 9.8 100690 88
2002-11-28 12:09 51°21.366 2°32.627 15.8 230 9.9 100690 88
2002-11-28 12:10 51°21.136 2°32.595 16.6 229 9.8 100690 88
2002-11-28 12:11 51°20.904 2°32.567 15.5 232 9.8 100710 88
2002-11-28 12:12 51°20.671 2°32.548 15.9 229 9.8 100700 88
2002-11-28 12:13 51°20.439 2°32.529 15.7 229 9.8 100700 88
2002-11-28 12:14 51°20.207 2°32.519 13.8 224 9.8 100680 88
2002-11-28 12:15 51°19.972 2°32.511 13.9 229 9.9 100680 88
2002-11-28 12:16 51°19.74 2°32.501 15.2 230 9.9 100700 89
2002-11-28 12:17 51°19.509 2°32.492 15 228 9.9 100670 88
2002-11-28 12:18 51°19.277 2°32.482 15.3 228 9.9 100670 88
2002-11-28 12:19 51°19.044 2°32.47 16.1 222 10 100670 88
2002-11-28 12:20 51°18.812 2°32.459 15.1 229 10.1 100690 88
2002-11-28 12:21 51°18.585 2°32.389 15.7 238 10.1 100690 88
2002-11-28 12:22 51°18.365 2°32.265 16.1 237 10.1 100680 88
2002-11-28 12:23 51°18.153 2°32.106 16.4 241 10.1 100670 87
2002-11-28 12:24 51°17.952 2°31.915 14.4 244 10.1 100690 87
2002-11-28 12:25 51°17.754 2°31.72 14.9 240 10.2 100700 87
2002-11-28 12:26 51°17.556 2°31.52 16.4 241 10.2 100690 87
2002-11-28 12:27 51°17.362 2°31.312 15.7 246 10.2 100690 87
2002-11-28 12:28 51°17.168 2°31.105 13.5 246 10.2 100680 87
2002-11-28 12:29 51°16.972 2°30.899 14 245 10.2 100690 87
2002-11-28 12:30 51°16.776 2°30.693 14.6 241 10.2 100690 87
2002-11-28 12:31 51°16.58 2°30.485 14.6 238 10.3 100690 87
2002-11-28 12:32 51°16.383 2°30.277 13.5 239 10.3 100690 87
2002-11-28 12:33 51°16.185 2°30.069 14.3 242 10.3 100690 87
2002-11-28 12:34 51°15.99 2°29.861 14.4 245 10.4 100690 87
2002-11-28 12:35 51°15.792 2°29.652 15.6 234 10.4 100680 87
2002-11-28 12:36 51°15.594 2°29.445 15.6 238 10.4 100680 87
2002-11-28 12:37 51°15.396 2°29.236 15.2 235 10.5 100670 86
2002-11-28 12:38 51°15.197 2°29.028 15.5 232 10.6 100690 86
2002-11-28 12:39 51°14.997 2°28.819 14.4 235 10.6 100680 86
2002-11-28 12:40 51°14.797 2°28.61 15.3 233 10.6 100670 85
2002-11-28 12:41 51°14.598 2°28.401 16.7 232 10.6 100670 85
2002-11-28 12:42 51°14.397 2°28.192 16.2 232 10.6 100670 85
2002-11-28 12:43 51°14.197 2°27.981 16.4 231 10.6 100680 84
2002-11-28 12:44 51°13.997 2°27.773 14.2 231 10.6 100670 84
2002-11-28 12:45 51°13.797 2°27.564 16.4 232 10.6 100670 84
2002-11-28 12:46 51°13.597 2°27.357 14.4 230 10.6 100670 84
2002-11-28 12:47 51°13.396 2°27.148 14.1 230 10.6 100680 84
2002-11-28 12:48 51°13.194 2°26.941 13.9 230 10.6 100680 84
2002-11-28 12:49 51°12.993 2°26.73 14.7 232 10.6 100700 84
2002-11-28 12:50 51°12.795 2°26.512 14.7 230 10.6 100700 84
2002-11-28 12:51 51°12.596 2°26.292 14.7 226 10.6 100680 84
2002-11-28 12:52 51°12.396 2°26.073 14.6 228 10.6 100690 84
2002-11-28 12:53 51°12.198 2°25.851 13.6 230 10.6 100700 84
2002-11-28 12:54 51°11.994 2°25.643 13.9 227 10.6 100710 84
2002-11-28 12:55 51°11.773 2°25.49 13.1 225 10.6 100700 84
2002-11-28 12:56 51°11.546 2°25.366 15.3 233 10.7 100700 85
2002-11-28 12:57 51°11.319 2°25.243 13.9 229 10.7 100690 85
2002-11-28 12:58 51°11.088 2°25.157 14.7 226 10.7 100710 85
2002-11-28 12:59 51°10.86 2°25.181 14.1 217 10.7 100710 85
2002-11-28 13:00 51°10.674 2°25.365 13 202 10.7 100710 85
2002-11-28 13:01 51°10.593 2°25.671 7.7 175 10.7 100710 85
2002-11-28 13:02 51°10.648 2°26.002 6.4 173 10.6 100740 85
2002-11-28 13:03 51°10.713 2°26.332 6.2 172 10.6 100730 85
2002-11-28 13:04 51°10.778 2°26.663 7.2 178 10.6 100740 84
2002-11-28 13:05 51°10.842 2°26.997 6.9 160 10.6 100740 85
2002-11-28 13:06 51°10.91 2°27.333 5.9 170 10.6 100740 84
2002-11-28 13:07 51°10.975 2°27.664 7.2 173 10.6 100730 84
2002-11-28 13:08 51°11.051 2°27.987 5.4 174 10.6 100750 84
2002-11-28 13:09 51°11.138 2°28.308 5.7 169 10.6 100750 84
2002-11-28 13:10 51°11.242 2°28.615 4.9 177 10.6 100740 84
2002-11-28 13:11 51°11.369 2°28.901 5.2 174 10.6 100750 85
2002-11-28 13:12 51°11.498 2°29.181 5.4 165 10.6 100740 85
2002-11-28 13:13 51°11.634 2°29.451 4.9 164 10.5 100740 85
2002-11-28 13:14 51°11.772 2°29.721 4.4 152 10.5 100740 85
2002-11-28 13:15 51°11.91 2°29.989 4.5 155 10.5 100740 85
2002-11-28 13:16 51°12.049 2°30.258 4.9 131 10.5 100730 86
2002-11-28 13:17 51°12.189 2°30.529 6 142 10.5 100740 86
2002-11-28 13:18 51°12.326 2°30.802 5.8 137 10.5 100740 86
2002-11-28 13:19 51°12.463 2°31.072 5.3 140 10.4 100740 85
2002-11-28 13:20 51°12.602 2°31.344 4.2 139 10.4 100740 85
2002-11-28 13:21 51°12.741 2°31.614 2.9 141 10.4 100740 85
2002-11-28 13:22 51°12.878 2°31.884 3.7 155 10.4 100750 85
2002-11-28 13:23 51°13.001 2°32.169 7 173 10.4 100740 85
2002-11-28 13:24 51°13.059 2°32.505 6 172 10.4 100740 85
2002-11-28 13:25 51°13.107 2°32.85 6.2 163 10.4 100740 85
2002-11-28 13:26 51°13.149 2°33.199 6.2 151 10.4 100740 85
2002-11-28 13:27 51°13.192 2°33.547 6.9 179 10.4 100750 85
2002-11-28 13:28 51°13.235 2°33.895 7.2 179 10.4 100740 86
2002-11-28 13:29 51°13.275 2°34.242 8.3 173 10.4 100740 86
2002-11-28 13:30 51°13.348 2°34.574 6.8 161 10.4 100740 87
2002-11-28 13:31 51°13.438 2°34.896 7.1 165 10.4 100740 87
2002-11-28 13:32 51°13.525 2°35.217 7.9 157 10.4 100740 87
2002-11-28 13:33 51°13.614 2°35.536 7.2 163 10.4 100740 87
2002-11-28 13:34 51°13.701 2°35.859 7.3 157 10.4 100740 87
2002-11-28 13:35 51°13.786 2°36.18 6.9 162 10.3 100740 87
2002-11-28 13:36 51°13.871 2°36.503 7.3 154 10.3 100740 86
2002-11-28 13:37 51°13.955 2°36.828 7.5 165 10.3 100730 87
2002-11-28 13:38 51°14.036 2°37.154 8.2 150 10.3 100730 86
2002-11-28 13:39 51°14.099 2°37.488 8.9 162 10.3 100740 86
2002-11-28 13:40 51°14.132 2°37.835 10.2 159 10.3 100730 86
2002-11-28 13:41 51°14.165 2°38.182 9.5 162 10.3 100730 86
2002-11-28 13:42 51°14.181 2°38.534 10.9 168 10.3 100740 86
2002-11-28 13:43 51°14.107 2°38.868 8.8 186 10.2 100730 85
2002-11-28 13:44 51°13.92 2°39.066 14.6 213 10.3 100720 86
2002-11-28 13:45 51°13.691 2°39.032 16.7 235 10.3 100730 86
2002-11-28 13:46 51°13.477 2°38.866 16.7 243 10.3 100710 86
2002-11-28 13:47 51°13.284 2°38.642 17.9 244 10.3 100690 86
2002-11-28 13:48 51°13.096 2°38.405 17.5 246 10.2 100690 86
2002-11-28 13:49 51°12.908 2°38.167 17.3 243 10.2 100680 86
2002-11-28 13:50 51°12.721 2°37.931 16.2 251 10.2 100680 86
2002-11-28 13:51 51°12.533 2°37.694 16.1 245 10.2 100690 86
2002-11-28 13:52 51°12.346 2°37.458 15.9 240 10.2 100680 86
2002-11-28 13:53 51°12.158 2°37.22 16.7 243 10.2 100700 86
2002-11-28 13:54 51°11.97 2°36.986 16 245 10.2 100720 86
2002-11-28 13:55 51°11.774 2°36.772 18.2 236 10.2 100710 86
2002-11-28 13:56 51°11.575 2°36.559 15 241 10.2 100710 85
2002-11-28 13:57 51°11.377 2°36.348 17.5 237 10.2 100710 86
2002-11-28 13:58 51°11.179 2°36.134 15.7 238 10.2 100710 86
2002-11-28 13:59 51°10.981 2°35.921 16.5 242 10.2 100710 86
2002-11-28 14:00 51°10.774 2°35.741 16.1 227 10.2 100700 86
2002-11-28 14:01 51°10.543 2°35.655 17.1 227 10.2 100710 86
2002-11-28 14:02 51°10.307 2°35.651 15.3 216 10.2 100720 86
2002-11-28 14:03 51°10.08 2°35.739 14 219 10.2 100720 87
2002-11-28 14:04 51°9.86 2°35.87 15.1 211 10.2 100720 87
2002-11-28 14:05 51°9.643 2°35.994 13.7 213 10.1 100710 87
2002-11-28 14:06 51°9.481 2°36.071 11.8 212 10.1 100720 87
2002-11-28 14:07 51°9.395 2°36.056 9.5 224 10.1 100730 87
2002-11-28 14:08 51°9.358 2°36.028 9.1 232 10.1 100750 87
2002-11-28 14:09 51°9.352 2°36.02 8.1 247 10.1 100740 87
2002-11-28 14:10 51°9.349 2°36.012 7.9 246 10.1 100740 87
2002-11-28 14:11 51°9.348 2°36.005 7.5 240 10.1 100740 87
2002-11-28 14:12 51°9.35 2°36.001 7.5 236 10.1 100740 87
2002-11-28 14:13 51°9.262 2°35.97 12.9 215 10.1 100730 87
2002-11-28 14:14 51°9.122 2°36.096 9 205 10.1 100720 87
2002-11-28 14:15 51°9.015 2°36.108 10.2 237 10.1 100750 87
2002-11-28 14:16 51°8.951 2°36.055 8.8 246 10.1 100750 87
2002-11-28 14:17 51°8.905 2°36.003 8.4 256 10.1 100750 87
2002-11-28 14:18 51°8.88 2°35.949 7.1 273 10.1 100750 87
2002-11-28 14:19 51°8.871 2°35.898 9.5 297 10.1 100740 87
2002-11-28 14:20 51°8.871 2°35.846 7.5 297 10.1 100740 87
2002-11-28 14:21 51°8.868 2°35.793 6.3 291 10.1 100740 87
2002-11-28 14:22 51°8.863 2°35.741 6.7 288 10.1 100740 87
2002-11-28 14:23 51°8.855 2°35.691 7.7 289 10.2 100740 87
2002-11-28 14:24 51°8.847 2°35.602 9.7 299 10.2 100730 87
2002-11-28 14:25 51°8.941 2°35.434 1.5 343 10.2 100720 87
2002-11-28 14:26 51°9.079 2°35.565 5.5 166 10.2 100730 87
2002-11-28 14:27 51°9.171 2°35.871 6.1 166 10.2 100720 87
2002-11-28 14:28 51°9.263 2°36.195 5.5 169 10.1 100710 87
2002-11-28 14:29 51°9.353 2°36.52 7 178 10.1 100720 87
2002-11-28 14:30 51°9.437 2°36.853 7.2 172 10.1 100710 87
2002-11-28 14:31 51°9.52 2°37.186 7.4 176 10.1 100720 87
2002-11-28 14:32 51°9.602 2°37.52 6 183 10.1 100710 88
2002-11-28 14:33 51°9.678 2°37.859 7.5 178 10.1 100720 88
2002-11-28 14:34 51°9.754 2°38.198 6.2 194 10.1 100720 87
2002-11-28 14:35 51°9.83 2°38.528 5.3 191 10.1 100730 88
2002-11-28 14:36 51°9.908 2°38.873 5.2 184 10 100720 88
2002-11-28 14:37 51°9.984 2°39.212 6.3 182 10 100720 88
2002-11-28 14:38 51°10.06 2°39.554 5.3 187 10 100720 88
2002-11-28 14:39 51°10.134 2°39.895 5.7 187 10 100720 88
2002-11-28 14:40 51°10.204 2°40.239 5.7 184 10 100720 88
2002-11-28 14:41 51°10.272 2°40.582 5.1 184 10 100710 88
2002-11-28 14:42 51°10.34 2°40.926 6.2 178 10 100720 88
2002-11-28 14:43 51°10.408 2°41.27 5.4 181 10 100720 88
2002-11-28 14:44 51°10.486 2°41.61 6.8 182 10 100710 88
2002-11-28 14:45 51°10.566 2°41.949 6.8 179 10 100710 88
2002-11-28 14:46 51°10.647 2°42.288 5.2 186 10 100710 88
2002-11-28 14:47 51°10.73 2°42.635 6 177 10.1 100710 88
2002-11-28 14:48 51°10.81 2°42.972 6.2 185 10.1 100700 88
2002-11-28 14:49 51°10.893 2°43.311 6.1 186 10 100700 88
2002-11-28 14:50 51°10.975 2°43.65 7 185 10 100700 88
2002-11-28 14:51 51°11.057 2°43.988 6.3 184 10 100700 88
2002-11-28 14:52 51°11.14 2°44.327 6.7 190 9.9 100710 88
2002-11-28 14:53 51°11.227 2°44.662 6.9 186 9.8 100700 89
2002-11-28 14:54 51°11.32 2°44.994 7.7 184 9.7 100700 89
2002-11-28 14:55 51°11.414 2°45.329 6.8 185 9.7 100710 89
2002-11-28 14:56 51°11.508 2°45.66 8.2 183 9.6 100710 89
2002-11-28 14:57 51°11.599 2°45.989 6.7 177 9.6 100710 89
2002-11-28 14:58 51°11.7 2°46.315 8.1 173 9.5 100710 90
2002-11-28 14:59 51°11.802 2°46.64 6.6 173 9.5 100710 90
2002-11-28 15:00 51°11.904 2°46.964 7.2 167 9.5 100710 90
2002-11-28 15:01 51°12.006 2°47.29 6.1 181 9.5 100720 90
2002-11-28 15:02 51°12.108 2°47.612 8.7 170 9.5 100720 90
2002-11-28 15:03 51°12.218 2°47.93 7.1 179 9.4 100720 90
2002-11-28 15:04 51°12.33 2°48.254 6.3 185 9.4 100720 90
2002-11-28 15:05 51°12.44 2°48.565 6.9 187 9.4 100720 90
2002-11-28 15:06 51°12.552 2°48.883 7.2 197 9.4 100720 90
2002-11-28 15:07 51°12.663 2°49.202 6.8 196 9.4 100720 90
2002-11-28 15:08 51°12.776 2°49.521 7.7 198 9.3 100720 90
2002-11-28 15:09 51°12.89 2°49.846 6.4 193 9.3 100730 90
2002-11-28 15:10 51°13.001 2°50.16 7.2 184 9.3 100730 90
2002-11-28 15:11 51°13.114 2°50.478 6.9 185 9.3 100720 90
2002-11-28 15:12 51°13.228 2°50.797 6.2 188 9.3 100720 90
2002-11-28 15:13 51°13.349 2°51.108 5.8 187 9.3 100730 90
2002-11-28 15:14 51°13.47 2°51.422 5.5 182 9.2 100730 90
2002-11-28 15:15 51°13.592 2°51.733 5.5 194 9.3 100730 90
2002-11-28 15:16 51°13.715 2°52.045 6.3 200 9.3 100730 90
2002-11-28 15:17 51°13.836 2°52.359 6.7 194 9.3 100730 90
2002-11-28 15:18 51°13.97 2°52.644 5.5 178 9.3 100730 90
2002-11-28 15:19 51°14.028 2°52.834 5.5 155 9.2 100730 90
2002-11-28 15:20 51°14.066 2°52.943 4.9 106 9.3 100740 90
2002-11-28 15:21 51°14.109 2°53.012 3.8 121 9.2 100740 90
2002-11-28 15:22 51°14.14 2°53.074 5.3 130 9.2 100730 90
2002-11-28 15:23 51°14.165 2°53.132 4.9 128 9.3 100730 90
2002-11-28 15:24 51°14.191 2°53.198 4.8 128 9.2 100730 90
2002-11-28 15:25 51°14.224 2°53.297 5.6 138 9.2 100730 90
2002-11-28 15:26 51°14.274 2°53.472 6.4 176 9.2 100730 90
2002-11-28 15:27 51°14.372 2°53.756 7.1 168 9.2 100730 90
2002-11-28 15:28 51°14.454 2°54.067 5.7 179 9.2 100720 90
2002-11-28 15:29 51°14.505 2°54.396 8.5 197 9.3 100730 90
2002-11-28 15:30 51°14.5 2°54.723 8.9 208 9.3 100720 90
2002-11-28 15:31 51°14.4 2°54.994 10.7 215 9.3 100720 90
2002-11-28 15:32 51°14.29 2°55.215 6.8 222 9.3 100730 90
2002-11-28 15:33 51°14.217 2°55.337 6.1 221 9.3 100740 89
2002-11-28 15:34 51°14.142 2°55.421 8.6 222 9.3 100740 89
2002-11-28 15:35 51°14.076 2°55.479 8.6 224 9.3 100740 89
2002-11-28 15:36 51°14.008 2°55.531 6.3 228 9.3 100750 89
2002-11-28 15:37 51°13.927 2°55.581 7.9 231 9.3 100760 89